When you browse on this site, cookies collect data to enhance your experience and personalize the content and advertising you see.
Visit our Privacy Policy to learn more. By continuing to use the site, you agree to this use of cookies and data.
  • In Switzerland
  • List of Countries
  • For 7 days
  • Water Temperature
  • Weather Map
  • Weather Widgets
  • user-avatar
    Login

    Hourly Weather Nizhnee Isakovo

    Today, 25 August, Sunday

    Time Temperature Precipitation Wind Pressure Humidity
    00:00 +15°C° 0 mm 2 mps 748 mmHg 90%
    01:00 +14°C° 0 mm 2 mps 748 mmHg 92%
    02:00 +14°C° 0 mm 2 mps 748 mmHg 94%
    03:00 +14°C° 0 mm 2 mps 748 mmHg 95%
    04:00 +13°C° 0 mm 2 mps 748 mmHg 95%
    05:00 +13°C° 0 mm 2 mps 748 mmHg 96%
    06:00 +15°C° 0 mm 2 mps 749 mmHg 90%
    07:00 +16°C° 0 mm 3 mps 749 mmHg 84%
    08:00 +17°C° 0 mm 3 mps 749 mmHg 78%
    09:00 +18°C° 0 mm 3 mps 749 mmHg 71%
    10:00 +19°C° 0 mm 3 mps 749 mmHg 65%
    11:00 +21°C° 0 mm 4 mps 749 mmHg 58%
    12:00 +21°C° 0 mm 4 mps 749 mmHg 57%
    13:00 +21°C° 0 mm 3 mps 750 mmHg 57%
    14:00 +22°C° 0 mm 3 mps 750 mmHg 56%
    15:00 +21°C° 0 mm 3 mps 750 mmHg 60%
    16:00 +21°C° 0 mm 2 mps 750 mmHg 64%
    17:00 +20°C° 0 mm 2 mps 749 mmHg 68%
    18:00 +19°C° 0 mm 2 mps 750 mmHg 73%
    19:00 +18°C° 0 mm 1 mps 750 mmHg 77%
    20:00 +15°C° 0 mm 1 mps 750 mmHg 81%
    21:00 +15°C° 0 mm 1 mps 751 mmHg 83%
    22:00 +14°C° 0 mm 1 mps 751 mmHg 85%
    23:00 +13°C° 0 mm 1 mps 751 mmHg 86%

    Tomorrow, 26 August, Monday

    Time Temperature Precipitation Wind Pressure Humidity
    00:00 +13°C° 0 mm 1 mps 751 mmHg 88%
    01:00 +13°C° 0 mm 1 mps 751 mmHg 89%
    02:00 +12°C° 0 mm 1 mps 752 mmHg 90%
    03:00 +12°C° 0 mm 1 mps 751 mmHg 91%
    04:00 +12°C° 0 mm 1 mps 751 mmHg 91%
    05:00 +12°C° 0 mm 1 mps 751 mmHg 92%
    06:00 +14°C° 0 mm 1 mps 751 mmHg 86%
    07:00 +15°C° 0 mm 0 mps 752 mmHg 80%
    08:00 +17°C° 0 mm 0 mps 752 mmHg 74%
    09:00 +18°C° 0 mm 0 mps 752 mmHg 69%
    10:00 +19°C° 0 mm 0 mps 751 mmHg 64%
    11:00 +21°C° 0 mm 0 mps 751 mmHg 59%
    12:00 +23°C° 0 mm 1 mps 751 mmHg 57%
    13:00 +23°C° 0 mm 1 mps 751 mmHg 56%
    14:00 +23°C° 0 mm 2 mps 750 mmHg 54%
    15:00 +23°C° 0 mm 2 mps 750 mmHg 58%
    16:00 +21°C° 0 mm 2 mps 749 mmHg 62%
    17:00 +21°C° 0 mm 2 mps 749 mmHg 66%
    18:00 +19°C° 0 mm 2 mps 749 mmHg 69%
    19:00 +17°C° 0 mm 2 mps 749 mmHg 73%
    20:00 +16°C° 0 mm 2 mps 748 mmHg 76%
    21:00 +15°C° 0 mm 2 mps 748 mmHg 78%
    22:00 +15°C° 0 mm 2 mps 748 mmHg 80%
    23:00 +14°C° 0 mm 2 mps 748 mmHg 81%

    Day after tomorrow, 27 August, Tuesday

    Time Temperature Precipitation Wind Pressure Humidity
    00:00 +14°C° 0 mm 2 mps 748 mmHg 83%
    01:00 +14°C° 0 mm 2 mps 747 mmHg 85%
    02:00 +13°C° 0 mm 2 mps 747 mmHg 87%
    03:00 +13°C° 0 mm 2 mps 747 mmHg 88%
    04:00 +12°C° 0 mm 3 mps 746 mmHg 88%
    05:00 +12°C° 0 mm 3 mps 746 mmHg 89%
    06:00 +14°C° 0 mm 3 mps 746 mmHg 85%
    07:00 +15°C° 0 mm 4 mps 745 mmHg 81%
    08:00 +18°C° 0 mm 4 mps 745 mmHg 77%
    09:00 +19°C° 0.2 mm 5 mps 745 mmHg 74%
    10:00 +21°C° 0.2 mm 5 mps 744 mmHg 72%
    11:00 +22°C° 0.2 mm 6 mps 744 mmHg 69%
    12:00 +22°C° 0.2 mm 6 mps 744 mmHg 70%
    13:00 +21°C° 0.2 mm 6 mps 744 mmHg 70%
    14:00 +21°C° 0.2 mm 6 mps 744 mmHg 71%
    15:00 +21°C° 0 mm 5 mps 744 mmHg 70%
    16:00 +20°C° 0 mm 5 mps 743 mmHg 70%
    17:00 +20°C° 0 mm 4 mps 743 mmHg 70%
    18:00 +18°C° 0 mm 4 mps 744 mmHg 72%
    19:00 +17°C° 0 mm 4 mps 744 mmHg 74%
    20:00 +14°C° 0 mm 4 mps 744 mmHg 76%
    21:00 +14°C° 0 mm 4 mps 745 mmHg 78%
    22:00 +13°C° 0 mm 4 mps 745 mmHg 79%
    23:00 +13°C° 0 mm 4 mps 745 mmHg 81%

    28 August, Wednesday

    Time Temperature Precipitation Wind Pressure Humidity
    00:00 +12°C° 0 mm 3 mps 745 mmHg 84%
    01:00 +11°C° 0 mm 3 mps 745 mmHg 86%
    02:00 +10°C° 0 mm 3 mps 746 mmHg 89%
    03:00 +9°C° 0 mm 3 mps 746 mmHg 90%
    04:00 +8°C° 0 mm 3 mps 746 mmHg 92%
    05:00 +7°C° 0 mm 3 mps 747 mmHg 93%
    06:00 +8°C° 0 mm 3 mps 747 mmHg 85%
    07:00 +10°C° 0 mm 3 mps 747 mmHg 78%
    08:00 +11°C° 0 mm 4 mps 747 mmHg 70%
    09:00 +12°C° 0 mm 4 mps 747 mmHg 65%
    10:00 +13°C° 0 mm 5 mps 747 mmHg 60%
    11:00 +14°C° 0 mm 5 mps 747 mmHg 55%
    12:00 +14°C° 0 mm 5 mps 747 mmHg 53%
    13:00 +15°C° 0 mm 5 mps 747 mmHg 50%
    14:00 +15°C° 0 mm 5 mps 747 mmHg 48%
    15:00 +15°C° 0 mm 5 mps 747 mmHg 52%
    16:00 +14°C° 0 mm 4 mps 747 mmHg 56%
    17:00 +14°C° 0 mm 3 mps 747 mmHg 60%
    18:00 +12°C° 0 mm 3 mps 747 mmHg 63%
    19:00 +10°C° 0 mm 3 mps 748 mmHg 66%
    20:00 +8°C° 0 mm 3 mps 748 mmHg 69%
    21:00 +8°C° 0 mm 3 mps 748 mmHg 73%
    22:00 +7°C° 0 mm 2 mps 749 mmHg 76%
    23:00 +6°C° 0 mm 2 mps 749 mmHg 80%

    29 August, Thursday

    Time Temperature Precipitation Wind Pressure Humidity
    00:00 +6°C° 0 mm 2 mps 749 mmHg 82%
    01:00 +5°C° 0 mm 2 mps 749 mmHg 84%
    02:00 +5°C° 0 mm 2 mps 749 mmHg 86%
    03:00 +5°C° 0 mm 2 mps 749 mmHg 87%
    04:00 +4°C° 0 mm 2 mps 750 mmHg 88%
    05:00 +4°C° 0 mm 2 mps 750 mmHg 90%
    06:00 +5°C° 0 mm 3 mps 750 mmHg 83%
    07:00 +8°C° 0 mm 3 mps 750 mmHg 76%
    08:00 +10°C° 0 mm 4 mps 750 mmHg 69%
    09:00 +11°C° 0 mm 4 mps 750 mmHg 66%
    10:00 +12°C° 0 mm 4 mps 750 mmHg 62%
    11:00 +13°C° 0 mm 4 mps 750 mmHg 59%
    12:00 +14°C° 0 mm 4 mps 750 mmHg 57%
    13:00 +14°C° 0 mm 4 mps 750 mmHg 55%
    14:00 +15°C° 0 mm 4 mps 749 mmHg 54%
    15:00 +16°C° 0 mm 3 mps 749 mmHg 57%
    16:00 +14°C° 0 mm 3 mps 749 mmHg 61%
    17:00 +15°C° 0 mm 2 mps 749 mmHg 64%
    18:00 +13°C° 0 mm 2 mps 749 mmHg 68%
    19:00 +10°C° 0 mm 2 mps 749 mmHg 71%
    20:00 +8°C° 0 mm 2 mps 749 mmHg 75%
    21:00 +8°C° 0 mm 2 mps 749 mmHg 76%
    22:00 +7°C° 0 mm 2 mps 750 mmHg 78%
    23:00 +7°C° 0 mm 2 mps 750 mmHg 79%

    30 August, Friday

    Time Temperature Precipitation Wind Pressure Humidity
    00:00 +7°C° 0 mm 1 mps 750 mmHg 81%
    01:00 +7°C° 0 mm 1 mps 750 mmHg 84%
    02:00 +6°C° 0 mm 1 mps 750 mmHg 86%
    03:00 +6°C° 0 mm 1 mps 750 mmHg 87%
    04:00 +6°C° 0 mm 1 mps 750 mmHg 87%
    05:00 +6°C° 0 mm 1 mps 750 mmHg 88%
    06:00 +7°C° 0 mm 2 mps 750 mmHg 81%
    07:00 +8°C° 0 mm 2 mps 750 mmHg 74%
    08:00 +10°C° 0 mm 2 mps 749 mmHg 66%
    09:00 +13°C° 0 mm 2 mps 749 mmHg 60%
    10:00 +14°C° 0 mm 2 mps 749 mmHg 54%
    11:00 +16°C° 0 mm 2 mps 749 mmHg 48%
    12:00 +17°C° 0 mm 3 mps 749 mmHg 48%
    13:00 +17°C° 0 mm 3 mps 748 mmHg 48%
    14:00 +18°C° 0 mm 3 mps 748 mmHg 48%
    15:00 +18°C° 0 mm 3 mps 747 mmHg 55%
    16:00 +17°C° 0 mm 2 mps 747 mmHg 62%
    17:00 +17°C° 0 mm 2 mps 747 mmHg 69%
    18:00 +16°C° 0 mm 3 mps 747 mmHg 74%
    19:00 +14°C° 0 mm 3 mps 747 mmHg 80%
    20:00 +12°C° 0 mm 3 mps 747 mmHg 86%
    21:00 +12°C° 0 mm 3 mps 747 mmHg 89%
    22:00 +13°C° 0 mm 2 mps 747 mmHg 92%
    23:00 +13°C° 0 mm 2 mps 747 mmHg 95%
    Show more